[[{"header":{"parameterUnit":"m.s-1","parameterCategory":1,"la1":30.2991,"la2":30.254,"lo1":-89.0895,"lo2":-89.0444,"dy":0.0017,"dx":0.0017,"nx":28,"ny":28,"refTime":"2025-07-28T03:00:00:Z","depth":0,"parameterNumber":2,"parameterNumberName":"U-component_of_WINDS"},"data":[0,0,0,0,0,0,0,0,0,0,0,0,0,0,0,0,0,0,0,0,0,0,0,0,0,0,0,0,0,0,0,0,0,0,0,0,0,0,0,0,0,0,0,0,0,0,0,0,0,0,0,0,0,0,0,0,0,0,2.1452,2.1453,0,2.1518,2.1519,2.152,2.1441,2.1438,2.1435,2.1432,2.1506,2.1511,2.1516,0,0,0,0,0,0,0,0,0,0,0,0,0,2.1264,2.1267,2.1452,2.1453,2.1454,2.1518,2.1519,2.152,2.1441,2.1437,2.1434,2.1431,2.1505,2.151,2.1516,0,0,0,0,0,0,0,0,0,0,0,0,0,2.1339,2.1269,2.1452,2.1422,2.142,2.1518,2.1519,2.152,2.1442,2.1437,2.1433,2.1429,2.1503,2.151,2.1517,2.165,0,0,2.1539,2.1542,0,0,0,0,0,0,0,0,2.1335,2.1346,2.1425,2.1424,2.1422,2.1466,2.148,2.1564,2.1443,2.1434,2.1432,2.1427,2.1497,2.1504,2.1527,2.1653,2.1656,2.1539,2.1544,2.1547,2.1549,0,0,0,0,0,0,0,2.133,2.1343,2.1478,2.1427,2.1425,2.1407,2.1413,2.1495,2.149,2.1434,2.1429,2.1437,2.1495,2.152,2.1528,2.1657,2.1539,2.1545,2.155,2.1553,2.1897,2.1902,0,0,0,0,0,0,2.1327,2.1339,2.1476,2.148,2.1367,2.1414,2.1421,2.1457,2.1489,2.1489,2.1441,2.1433,2.151,2.152,2.153,2.1689,2.1547,2.1553,2.1557,2.1893,2.1899,2.1904,0,0,0,0,0,0,2.1324,2.134,2.1473,2.1408,2.1424,2.1422,2.1463,2.146,2.1485,2.1493,2.1493,2.1467,2.1507,2.152,2.162,2.169,2.1556,2.1563,2.1887,2.1894,2.1901,2.2006,0,0,0,0,0,0,2.1319,2.1339,2.1388,2.141,2.1428,2.1561,2.1467,2.1465,2.1497,2.1487,2.1518,2.1519,2.1505,2.161,2.1627,2.1698,2.1568,2.1881,2.189,2.1899,2.1997,2.2016,2.2033,0,0,0,0,0,2.1312,2.1416,2.1391,2.1408,2.1488,2.1565,2.1575,2.1555,2.1503,2.1553,2.1558,2.1518,2.1679,2.1621,2.164,2.1713,2.1876,2.1888,2.1898,2.1988,2.2012,2.2033,0,0,0,0,0,0,2.1405,2.1419,2.1391,2.1505,2.1534,2.1551,2.1614,2.1581,2.1628,2.1617,2.1592,2.16,2.1707,2.172,2.1655,2.1844,2.1769,2.1785,2.1832,2.1855,2.1873,2.1868,2.1574,0,0,0,0,0,2.1439,2.1498,2.1507,2.1607,2.1623,2.1616,2.1649,2.1631,2.1661,2.1674,2.1686,2.1719,2.1777,2.1816,2.187,2.1998,2.2004,2.2058,2.2076,2.2091,2.2105,2.2175,2.2199,2.194,2.194,2.194,0,0,2.1509,2.1524,2.1563,2.1626,2.1646,2.171,2.1627,2.1698,2.1746,2.1685,2.178,2.1791,2.1826,2.194,2.1991,2.1955,2.2178,2.2105,2.2117,2.2123,2.2189,2.2213,2.2235,2.1947,2.1946,2.1945,0,0,2.167,2.1686,2.1772,2.1794,2.1825,2.182,2.1841,2.1863,2.1867,2.1962,2.1918,2.1975,2.2076,2.2103,2.213,2.2302,2.2267,2.232,2.2416,2.2485,2.2505,2.2523,2.2586,2.2609,2.2334,2.2334,2.2334,0,2.1754,2.1847,2.182,2.1894,2.1924,2.187,2.1957,2.1981,2.203,2.2052,2.201,2.2135,2.2155,2.2275,2.2317,2.234,2.2365,2.2317,2.2504,2.2521,2.2538,2.2598,2.2621,2.234,2.234,2.2339,2.2338,0,2.1949,2.2014,2.208,2.2126,2.2163,2.2244,2.2232,2.2273,2.2252,2.2252,2.235,2.2372,2.243,2.2457,2.2437,2.2576,2.2552,2.2507,2.2432,2.2569,2.2625,2.2648,2.2349,2.2347,2.2345,2.2344,0,0,2.2172,2.2202,2.2227,2.2247,2.2278,2.2329,2.2408,2.2462,2.2499,2.2535,2.2602,2.2688,2.2647,2.2678,2.2661,2.2721,2.2857,2.2669,2.2669,2.2704,2.3013,2.3047,2.3074,2.2833,2.2838,2.2841,2.301,0,2.2334,2.2468,2.2447,2.2578,2.2639,2.2588,2.2657,2.2685,2.2688,2.2741,2.2745,2.2807,2.2746,2.2765,2.2822,2.2829,2.2919,2.2816,2.2898,2.2901,2.2892,2.3103,2.314,2.3298,2.3032,2.3036,2.3038,0,2.2541,2.2583,2.2719,2.2741,2.2766,2.2828,2.2877,2.2928,2.2959,2.2957,2.2991,2.2964,2.3045,2.2968,2.3081,2.3011,2.3043,2.3052,2.3058,2.3066,2.2979,2.3119,2.3348,2.3373,2.3072,2.3069,2.3067,0,2.2692,2.2782,2.2875,2.2894,2.2922,2.2967,2.2981,2.3007,2.3042,2.3085,2.3108,2.3161,2.3191,2.3234,2.3222,2.3166,2.3339,2.326,2.3341,2.3342,2.3381,2.3379,2.3621,2.34,2.3399,2.3399,2.3398,0,2.2876,2.2962,2.2943,2.3001,2.3096,2.3072,2.3168,2.3176,2.32,2.326,2.322,2.3278,2.3258,2.3316,2.3308,2.3404,2.3417,2.3419,2.3417,2.3424,2.3424,2.3446,2.3435,2.3405,2.3404,2.3403,2.3401,0,2.3061,2.3051,2.315,2.3167,2.3174,2.3244,2.326,2.3315,2.3314,2.3391,2.3408,2.3407,2.3473,2.3465,2.3539,2.3533,2.3653,2.3636,2.3642,2.3639,2.3721,2.3714,2.3987,2.4022,2.3777,2.3779,2.3781,0,2.3179,2.3244,2.3268,2.3305,2.3322,2.3381,2.3415,2.3395,2.3433,2.3473,2.3525,2.3586,2.3634,2.3742,2.3749,2.3806,2.3791,2.3883,2.38,2.3805,2.3795,2.3792,2.3799,2.39,2.3903,2.3905,2.3907,0,2.3392,2.3384,2.3434,2.3484,2.3526,2.3564,2.3598,2.3631,2.3614,2.3659,2.3724,2.3762,2.3836,2.3899,2.3952,2.3969,2.3937,2.3933,2.3955,2.3964,2.3965,2.3967,2.3688,2.3927,2.3925,2.3923,2.3922,2.3922,2.3549,2.3604,2.363,2.3688,2.3711,2.3744,2.3797,2.3802,2.3856,2.3914,2.3898,2.3973,2.4004,2.4072,2.4094,2.4154,2.4121,2.4153,2.4161,2.417,2.418,2.3954,2.4164,2.4163,2.4163,2.4162,2.4162,0,2.376,2.3774,2.3828,2.3876,2.3922,2.3885,2.3921,2.3963,2.4028,2.4059,2.4107,2.4183,2.4243,2.4255,2.4313,2.4359,2.4346,2.4375,2.4373,2.4378,2.4206,2.4181,2.4385,2.4385,2.4385,2.4385,2.4385,2.4385,2.3876,2.3969,2.3964,2.4068,2.4082,2.4153,2.4178,2.4209,2.4233,2.4319,2.4368,2.4375,2.4399,2.4458,2.4513,2.4515,2.4539,2.4575,2.4572,2.4412,2.4389,2.4368,2.4345,2.458,2.4581,2.4739,2.474,2.4742]},{"header":{"parameterUnit":"m.s-1","parameterCategory":1,"la1":30.2991,"la2":30.254,"lo1":-89.0895,"lo2":-89.0444,"dy":0.0017,"dx":0.0017,"nx":28,"ny":28,"refTime":"2025-07-28T03:00:00:Z","depth":0,"parameterNumber":3,"parameterNumberName":"V-component_of_WINDS"},"data":[0,0,0,0,0,0,0,0,0,0,0,0,0,0,0,0,0,0,0,0,0,0,0,0,0,0,0,0,0,0,0,0,0,0,0,0,0,0,0,0,0,0,0,0,0,0,0,0,0,0,0,0,0,0,0,0,0,0,0.351,0.3512,0,0.3697,0.3699,0.3701,0.3727,0.3725,0.3723,0.3721,0.3917,0.3923,0.393,0,0,0,0,0,0,0,0,0,0,0,0,0,0.3177,0.3183,0.3509,0.3512,0.3514,0.3696,0.3699,0.3702,0.3727,0.3725,0.3723,0.3721,0.3914,0.3922,0.3931,0,0,0,0,0,0,0,0,0,0,0,0,0,0.3338,0.3185,0.3509,0.3549,0.3554,0.3696,0.3699,0.3702,0.3727,0.3725,0.3722,0.372,0.3912,0.3922,0.3932,0.4048,0,0,0.3963,0.3967,0,0,0,0,0,0,0,0,0.3329,0.335,0.3541,0.3546,0.3553,0.3686,0.3653,0.3818,0.3728,0.3662,0.3721,0.3718,0.3842,0.3858,0.3899,0.4057,0.4065,0.3964,0.397,0.3975,0.3977,0,0,0,0,0,0,0,0.3318,0.3343,0.3584,0.3543,0.3551,0.3558,0.3578,0.3685,0.3765,0.3667,0.367,0.3691,0.3845,0.3889,0.3904,0.4068,0.3964,0.3973,0.3979,0.3983,0.4331,0.4334,0,0,0,0,0,0,0.3299,0.3333,0.3578,0.3589,0.3432,0.3566,0.3588,0.3646,0.3763,0.3779,0.3693,0.3692,0.3873,0.3892,0.3911,0.4055,0.3974,0.3984,0.399,0.4328,0.4331,0.4335,0,0,0,0,0,0,0.3292,0.3321,0.357,0.3462,0.3494,0.3575,0.3639,0.3651,0.3695,0.3783,0.3798,0.3723,0.3871,0.3896,0.4013,0.4062,0.3989,0.3998,0.4324,0.4329,0.4333,0.4344,0,0,0,0,0,0,0.3282,0.3318,0.3362,0.3463,0.35,0.3669,0.3642,0.3656,0.3712,0.3712,0.3815,0.383,0.3871,0.3998,0.4023,0.4075,0.4006,0.432,0.4326,0.4332,0.4339,0.4348,0.4355,0,0,0,0,0,0.327,0.3359,0.3365,0.3394,0.3557,0.3672,0.3693,0.3738,0.3716,0.3762,0.3818,0.3827,0.4052,0.401,0.4039,0.4094,0.4317,0.4324,0.4331,0.4336,0.4346,0.4355,0,0,0,0,0,0,0.3264,0.3373,0.338,0.3504,0.3578,0.3676,0.3736,0.3748,0.3831,0.3828,0.388,0.3904,0.4018,0.4067,0.4019,0.4212,0.4183,0.4196,0.4176,0.4187,0.4195,0.4181,0.4015,0,0,0,0,0,0.3277,0.336,0.3451,0.3551,0.3588,0.3655,0.3707,0.3734,0.3814,0.3846,0.3911,0.3989,0.4077,0.4134,0.4221,0.4345,0.4369,0.4398,0.4405,0.4412,0.4423,0.4493,0.4507,0.4358,0.4357,0.4357,0,0,0.3305,0.3374,0.3424,0.3552,0.3613,0.3698,0.3682,0.3773,0.3838,0.386,0.3975,0.4025,0.4115,0.4237,0.4293,0.4281,0.4469,0.4421,0.4425,0.4433,0.4501,0.4516,0.4528,0.4362,0.4361,0.4361,0,0,0.34,0.346,0.3551,0.3611,0.3703,0.3747,0.3768,0.3864,0.3897,0.4012,0.4031,0.4108,0.4259,0.4323,0.4375,0.4491,0.4502,0.4517,0.4561,0.4628,0.464,0.465,0.4693,0.4707,0.4528,0.4528,0.4528,0,0.3424,0.3553,0.3596,0.3686,0.3742,0.3764,0.3856,0.3914,0.4029,0.4067,0.4051,0.424,0.4303,0.4439,0.4467,0.4508,0.4535,0.4507,0.4634,0.4645,0.4656,0.4697,0.4713,0.4529,0.4529,0.4529,0.4529,0,0.3578,0.3667,0.3728,0.3838,0.39,0.3991,0.4048,0.4106,0.4128,0.4173,0.429,0.4365,0.4466,0.45,0.4523,0.464,0.463,0.4623,0.4595,0.4671,0.471,0.4726,0.4531,0.4531,0.453,0.453,0,0,0.3677,0.3807,0.3829,0.3879,0.398,0.405,0.4142,0.4239,0.4289,0.4367,0.4446,0.4571,0.4565,0.4624,0.4654,0.4713,0.48,0.4699,0.4702,0.4716,0.4935,0.494,0.4958,0.4807,0.481,0.4813,0.4928,0,0.3785,0.3948,0.3988,0.4128,0.4211,0.4232,0.4312,0.4383,0.4427,0.4504,0.4554,0.4642,0.4627,0.4663,0.4722,0.4777,0.4845,0.4769,0.4883,0.4886,0.4861,0.4978,0.4985,0.509,0.4943,0.4946,0.4948,0,0.3933,0.4013,0.416,0.425,0.4286,0.4357,0.4449,0.4523,0.4603,0.4631,0.4696,0.4719,0.4816,0.478,0.4915,0.4862,0.491,0.4944,0.4949,0.4963,0.4923,0.4997,0.5124,0.514,0.4972,0.497,0.4969,0,0.3992,0.4136,0.4243,0.4284,0.4391,0.4441,0.4488,0.4566,0.4622,0.4702,0.4739,0.483,0.488,0.495,0.4998,0.4968,0.5128,0.5097,0.5155,0.5154,0.519,0.5188,0.5329,0.5218,0.5218,0.5218,0.5217,0,0.4109,0.4199,0.4271,0.4337,0.4437,0.4482,0.4582,0.4629,0.4698,0.4774,0.4797,0.4868,0.4925,0.5004,0.5042,0.5147,0.517,0.5196,0.5205,0.5195,0.5192,0.5229,0.5224,0.5222,0.5221,0.522,0.5219,0,0.4193,0.4245,0.4363,0.4453,0.4478,0.4549,0.4627,0.4692,0.4735,0.4831,0.4856,0.4925,0.5019,0.5072,0.5191,0.5216,0.5334,0.5338,0.5306,0.5311,0.5366,0.5361,0.5538,0.5564,0.5434,0.5435,0.5436,0,0.4266,0.4335,0.4432,0.4484,0.4532,0.4615,0.4671,0.4718,0.4776,0.4872,0.4926,0.502,0.5099,0.5247,0.5309,0.5399,0.5408,0.5463,0.5422,0.5409,0.541,0.5406,0.5414,0.5471,0.5472,0.5473,0.5474,0,0.4389,0.4411,0.4491,0.4579,0.4645,0.4718,0.479,0.4831,0.4889,0.4953,0.5049,0.5109,0.5229,0.5323,0.5418,0.5467,0.5481,0.5486,0.5505,0.5496,0.5475,0.5488,0.5328,0.5483,0.5482,0.5481,0.5481,0.548,0.4471,0.4534,0.4611,0.47,0.4758,0.4824,0.4889,0.494,0.502,0.512,0.5142,0.5243,0.5321,0.545,0.5501,0.5581,0.5571,0.5598,0.5605,0.5611,0.5614,0.546,0.5598,0.5598,0.5598,0.5598,0.5598,0,0.4597,0.4648,0.4728,0.4827,0.4896,0.49,0.4979,0.5037,0.5125,0.5196,0.5272,0.5381,0.5472,0.5539,0.5632,0.5683,0.5692,0.5706,0.5704,0.5715,0.5617,0.5592,0.5697,0.5697,0.5697,0.5697,0.5697,0.5697,0.4671,0.4777,0.4807,0.4942,0.4992,0.509,0.5135,0.5196,0.5252,0.5373,0.5448,0.549,0.556,0.5658,0.5741,0.5759,0.5793,0.5807,0.5825,0.5733,0.5722,0.5712,0.5689,0.5813,0.5813,0.5917,0.5918,0.5919]}]]